GW4109 Weather Reports


Display with metric or nautical units.
time (UTC)temp
F
wind
direction
speed
MPH
gust
MPH
rain 1hr
in
rain 24hr
in
rain mn
in
humidity
%
barometer
mb
20260831103254 82 195 0.0 1.0 0.00 0.00 0.00 25 1013.7
20260831102753 83 70 1.0 2.0 0.00 0.00 0.00 24 1013.4
20260831102248 83 207 0.0 2.0 0.00 0.00 0.00 24 1013.2
20260831101744 84 88 1.0 3.0 0.00 0.00 0.00 24 1013.5
20260831101239 85 191 0.0 2.0 0.00 0.00 0.00 22 1013.3
20260831100735 84 169 1.0 3.0 0.00 0.00 0.00 21 1013.4
20260831100231 83 50 0.0 2.0 0.00 0.00 0.00 23 1013.4
20260831095729 83 205 0.0 2.0 0.00 0.00 0.00 24 1013.6
20260831095225 84 88 0.0 1.0 0.00 0.00 0.00 23 1013.3
20260831094725 84 168 2.0 3.0 0.00 0.00 0.00 24 1013.5
20260831094221 84 210 1.0 2.0 0.00 0.00 0.00 24 1013.5
20260831093717 86 342 1.0 4.0 0.00 0.00 0.00 21 1013.5
20260831093212 86 177 1.0 2.0 0.00 0.00 0.00 22 1013.5
20260831092708 86 106 0.0 2.0 0.00 0.00 0.00 20 1013.3
20260831092203 88 99 1.0 2.0 0.00 0.00 0.00 21 1013.2
20260831091703 86 185 0.0 1.0 0.00 0.00 0.00 23 1013.3
20260831091159 83 355 2.0 2.0 0.00 0.00 0.00 24 1013.4
20260831090659 85 289 1.0 2.0 0.00 0.00 0.00 23 1013.3
20260831090155 86 76 2.0 2.0 0.00 0.00 0.00 22 1013.3
20260831085651 86 64 2.0 2.0 0.00 0.00 0.00 22 1013.5
20260831085147 87 147 0.0 2.0 0.00 0.00 0.00 21 1013.6
20260831084642 87 266 0.0 2.0 0.00 0.00 0.00 23 1013.6
20260831084138 86 154 2.0 2.0 0.00 0.00 0.00 22 1013.5
20260831083634 85 63 0.0 2.0 0.00 0.00 0.00 24 1013.4
20260831083129 85 80 2.0 3.0 0.00 0.00 0.00 24 1013.4
20260831082627 85 299 0.0 3.0 0.00 0.00 0.00 24 1013.6
20260831082123 84 79 1.0 2.0 0.00 0.00 0.00 24 1013.5
20260831081618 85 63 0.0 2.0 0.00 0.00 0.00 24 1013.8
20260831081114 84 68 0.0 1.0 0.00 0.00 0.00 25 1013.5
20260831080609 84 269 0.0 1.0 0.00 0.00 0.00 26 1013.7
20260831080104 85 48 1.0 2.0 0.00 0.00 0.00 26 1013.6
20260831075600 86 63 2.0 2.0 0.00 0.00 0.00 25 1013.7
20260831075055 87 55 2.0 3.0 0.00 0.00 0.00 24 1013.8
20260831074554 87 100 0.0 1.0 0.00 0.00 0.00 24 1013.6
20260831074049 87 222 0.0 2.0 0.00 0.00 0.00 24 1013.7
20260831073544 87 255 1.0 3.0 0.00 0.00 0.00 23 1013.5
20260831073043 87 170 2.0 3.0 0.00 0.00 0.00 23 1013.6
20260831072539 87 237 1.0 1.0 0.00 0.00 0.00 23 1013.6
20260831072035 87 89 0.0 1.0 0.00 0.00 0.00 24 1013.7
20260831071534 87 223 0.0 1.0 0.00 0.00 0.00 23 1013.4
20260831071029 88 239 2.0 4.0 0.00 0.00 0.00 23 1013.5
20260831070528 88 251 1.0 3.0 0.00 0.00 0.00 23 1013.4
20260831070023 88 247 0.0 2.0 0.00 0.00 0.00 23 1013.6
20260831065521 89 59 1.0 2.0 0.00 0.00 0.00 23 1013.3
20260831065016 89 191 0.0 2.0 0.00 0.00 0.00 23 1013.4
20260831064511 90 284 0.0 2.0 0.00 0.00 0.00 23 1013.4
20260831064006 91 92 2.0 2.0 0.00 0.00 0.00 22 1013.3
20260831063501 92 332 2.0 3.0 0.00 0.00 0.00 21 1013.4
20260831062955 93 285 3.0 10.0 0.00 0.00 0.00 20 1013.4
20260831062451 92 260 7.0 9.0 0.00 0.00 0.00 20 1013.3
20260831061950 92 253 5.0 10.0 0.00 0.00 0.00 20 1013.2
20260831061448 92 268 5.0 10.0 0.00 0.00 0.00 20 1013.2
20260831060945 93 238 7.0 13.0 0.00 0.00 0.00 20 1013.2
20260831060439 92 272 5.0 13.0 0.00 0.00 0.00 20 1013.1
20260831055938 92 287 6.0 15.0 0.00 0.00 0.00 20 1013.1
20260831055433 92 285 6.0 11.0 0.00 0.00 0.00 20 1013.1
20260831054929 93 287 11.0 19.0 0.00 0.00 0.00 20 1013.1
20260831054424 93 268 12.0 15.0 0.00 0.00 0.00 20 1013.4
20260831053923 93 293 7.0 11.0 0.00 0.00 0.00 20 1013.2
20260831053421 93 288 8.0 15.0 0.00 0.00 0.00 20 1013.3
20260831052916 93 300 9.0 17.0 0.00 0.00 0.00 20 1013.1
20260831052415 93 324 16.0 17.0 0.00 0.00 0.00 20 1013.2
20260831051914 93 312 12.0 15.0 0.00 0.00 0.00 20 1013.3
20260831051412 93 287 7.0 13.0 0.00 0.00 0.00 21 1013.2
20260831050908 93 253 6.0 12.0 0.00 0.00 0.00 21 1013.2
20260831050402 93 240 6.0 15.0 0.00 0.00 0.00 20 1013.2
20260831045901 93 301 4.0 16.0 0.00 0.00 0.00 21 1013.1
20260831045355 93 303 10.0 14.0 0.00 0.00 0.00 21 1013.0
20260831044850 93 277 14.0 17.0 0.00 0.00 0.00 21 1013.1
20260831044350 93 287 14.0 20.0 0.00 0.00 0.00 21 1012.9
20260831043847 93 303 6.0 19.0 0.00 0.00 0.00 21 1013.3
20260831043346 93 260 9.0 20.0 0.00 0.00 0.00 21 1012.9
20260831042841 93 288 6.0 15.0 0.00 0.00 0.00 22 1013.3
20260831042340 93 324 5.0 12.0 0.00 0.00 0.00 22 1013.0
20260831041836 94 295 14.0 19.0 0.00 0.00 0.00 22 1013.0
20260831041335 93 345 12.0 18.0 0.00 0.00 0.00 23 1013.0
20260831040830 94 23 3.0 19.0 0.00 0.00 0.00 22 1013.0
20260831040329 93 324 11.0 16.0 0.00 0.00 0.00 23 1012.8
20260831035828 93 306 16.0 18.0 0.00 0.00 0.00 24 1012.6
20260831035327 94 299 13.0 16.0 0.00 0.00 0.00 23 1012.7
20260831034822 94 281 6.0 9.0 0.00 0.00 0.00 23 1012.5
20260831034317 94 289 5.0 15.0 0.00 0.00 0.00 22 1012.6
20260831033812 94 313 10.0 15.0 0.00 0.00 0.00 23 1012.4
20260831033307 95 287 5.0 15.0 0.00 0.00 0.00 22 1012.4
20260831032803 95 280 7.0 11.0 0.00 0.00 0.00 22 1012.3
20260831032257 94 301 7.0 18.0 0.00 0.00 0.00 22 1012.1
20260831031752 94 280 4.0 10.0 0.00 0.00 0.00 23 1012.0
20260831031251 94 308 7.0 13.0 0.00 0.00 0.00 23 1011.7
20260831030746 94 326 9.0 12.0 0.00 0.00 0.00 24 1012.0
20260831030244 94 315 6.0 11.0 0.00 0.00 0.00 24 1011.7
20260831025744 94 252 11.0 22.0 0.00 0.00 0.00 23 1011.7
20260831025238 94 296 6.0 14.0 0.00 0.00 0.00 24 1011.8
20260831024735 95 274 10.0 17.0 0.00 0.00 0.00 23 1011.7
20260831024233 95 306 6.0 9.0 0.00 0.00 0.00 25 1012.0
20260831023732 95 301 13.0 17.0 0.00 0.00 0.00 26 1012.0
20260831023231 95 293 11.0 22.0 0.00 0.00 0.00 25 1011.5
20260831022726 95 289 11.0 20.0 0.00 0.00 0.00 25 1011.5
20260831022221 95 292 9.0 20.0 0.00 0.00 0.00 26 1011.7
20260831021720 95 295 10.0 19.0 0.00 0.00 0.00 27 1011.7
20260831021215 95 273 9.0 22.0 0.00 0.00 0.00 27 1011.5
20260831020712 96 261 11.0 17.0 0.00 0.00 0.00 26 1011.3
20260831020211 96 273 9.0 22.0 0.00 0.00 0.00 26 1011.2
20260831015706 96 243 19.0 24.0 0.00 0.00 0.00 25 1011.0
20260831015201 96 265 13.0 23.0 0.00 0.00 0.00 25 1011.1
20260831014656 96 271 11.0 23.0 0.00 0.00 0.00 24 1010.9
20260831014151 97 310 14.0 19.0 0.00 0.00 0.00 23 1011.0
20260831013647 97 281 8.0 19.0 0.00 0.00 0.00 23 1010.5
20260831013147 97 292 8.0 20.0 0.00 0.00 0.00 23 1010.9
20260831012642 98 264 10.0 13.0 0.00 0.00 0.00 23 1010.7
20260831012137 98 274 11.0 19.0 0.00 0.00 0.00 23 1010.8
20260831011636 98 293 6.0 17.0 0.00 0.00 0.00 23 1010.8
20260831011132 99 326 8.0 10.0 0.00 0.00 0.00 23 1011.0
20260831010627 101 261 9.0 14.0 0.00 0.00 0.00 23 1010.6
20260831010122 101 287 6.0 18.0 0.00 0.00 0.00 23 1010.8
20260831005617 101 250 8.0 12.0 0.00 0.00 0.00 22 1010.7
20260831005112 102 258 7.0 11.0 0.00 0.00 0.00 22 1010.8
20260831004608 103 248 6.0 15.0 0.00 0.00 0.00 22 1010.6
20260831004103 103 238 7.0 9.0 0.00 0.00 0.00 22 1010.7
20260831003600 102 262 8.0 19.0 0.00 0.00 0.00 22 1010.7
20260831003055 103 243 15.0 23.0 0.00 0.00 0.00 22 1010.7
20260831002554 103 327 6.0 15.0 0.00 0.00 0.00 22 1010.7
20260831002049 103 290 8.0 18.0 0.00 0.00 0.00 21 1010.8
20260831001544 104 242 17.0 23.0 0.00 0.00 0.00 21 1010.8
20260831001041 104 275 9.0 21.0 0.00 0.00 0.00 21 1010.7
20260831000537 104 248 9.0 14.0 0.00 0.00 0.00 21 1010.6
20260831000036 104 260 7.0 14.0 0.00 0.00 0.00 21 1010.8
20260830235535 104 255 19.0 21.0 0.00 0.00 0.00 21 1010.8
20260830235030 104 249 14.0 22.0 0.00 0.00 0.00 21 1010.7
20260830234525 106 272 9.0 13.0 0.00 0.00 0.00 20 1010.8
20260830234020 105 238 9.0 19.0 0.00 0.00 0.00 21 1010.7
20260830233515 105 260 8.0 17.0 0.00 0.00 0.00 21 1010.9
20260830233012 105 253 16.0 23.0 0.00 0.00 0.00 21 1010.8
20260830232508 105 264 7.0 18.0 0.00 0.00 0.00 21 1010.9
20260830232004 105 247 12.0 19.0 0.00 0.00 0.00 20 1010.8
20260830231459 105 246 15.0 17.0 0.00 0.00 0.00 20 1011.0
20260830230958 106 250 5.0 17.0 0.00 0.00 0.00 20 1010.9
20260830230454 106 261 9.0 15.0 0.00 0.00 0.00 21 1011.0
20260830225952 107 254 10.0 16.0 0.00 0.00 0.00 20 1011.0
20260830225449 106 287 6.0 16.0 0.00 0.00 0.00 20 1011.1
20260830224948 107 238 14.0 16.0 0.00 0.00 0.00 20 1011.0
20260830224447 107 245 8.0 22.0 0.00 0.00 0.00 20 1011.1
20260830223944 107 232 10.0 15.0 0.00 0.00 0.00 19 1011.2
20260830223440 107 233 17.0 20.0 0.00 0.00 0.00 20 1011.2
20260830222939 107 227 11.0 21.0 0.00 0.00 0.00 20 1011.1
20260830222435 108 228 6.0 14.0 0.00 0.00 0.00 20 1011.2
20260830221930 108 245 9.0 19.0 0.00 0.00 0.00 20 1011.4
20260830221426 108 249 13.0 15.0 0.00 0.00 0.00 19 1011.5
20260830220921 107 250 14.0 23.0 0.00 0.00 0.00 20 1011.2
20260830220416 107 254 12.0 17.0 0.00 0.00 0.00 20 1011.5
20260830215913 106 237 14.0 17.0 0.00 0.00 0.00 21 1011.7
20260830215408 107 267 8.0 18.0 0.00 0.00 0.00 20 1011.7
20260830214903 108 246 19.0 21.0 0.00 0.00 0.00 20 1011.7
20260830214358 109 213 6.0 15.0 0.00 0.00 0.00 19 1011.6
20260830213852 108 232 4.0 13.0 0.00 0.00 0.00 19 1011.8
20260830213343 109 227 9.0 12.0 0.00 0.00 0.00 18 1012.0
20260830212838 108 241 6.0 13.0 0.00 0.00 0.00 18 1011.7
20260830212334 108 226 7.0 16.0 0.00 0.00 0.00 18 1012.1
20260830211832 108 261 6.0 14.0 0.00 0.00 0.00 19 1012.2
20260830211327 107 253 7.0 14.0 0.00 0.00 0.00 19 1012.3
20260830210823 109 290 4.0 6.0 0.00 0.00 0.00 19 1012.2
20260830210322 109 107 2.0 5.0 0.00 0.00 0.00 19 1012.3
20260830205820 107 94 4.0 7.0 0.00 0.00 0.00 19 1012.4
20260830205314 106 103 6.0 10.0 0.00 0.00 0.00 19 1012.6
20260830204809 107 190 1.0 9.0 0.00 0.00 0.00 19 1012.4
20260830204308 108 78 4.0 7.0 0.00 0.00 0.00 19 1012.6
20260830203804 108 98 5.0 8.0 0.00 0.00 0.00 19 1012.7
20260830203300 109 39 2.0 4.0 0.00 0.00 0.00 18 1012.8
20260830202759 108 30 3.0 4.0 0.00 0.00 0.00 19 1012.6
20260830202254 108 81 1.0 5.0 0.00 0.00 0.00 19 1012.9
20260830201749 107 86 2.0 6.0 0.00 0.00 0.00 19 1012.8
20260830201243 107 5 2.0 7.0 0.00 0.00 0.00 19 1013.1
20260830200738 106 112 2.0 7.0 0.00 0.00 0.00 19 1012.9
20260830200238 106 70 4.0 8.0 0.00 0.00 0.00 19 1013.1
20260830195733 106 99 9.0 9.0 0.00 0.00 0.00 19 1013.1
20260830195231 107 93 8.0 12.0 0.00 0.00 0.00 18 1013.2
20260830194730 108 122 4.0 8.0 0.00 0.00 0.00 18 1013.0
20260830194225 107 63 3.0 4.0 0.00 0.00 0.00 19 1013.2
20260830193720 107 76 4.0 6.0 0.00 0.00 0.00 19 1013.2
20260830193214 105 298 1.0 6.0 0.00 0.00 0.00 19 1013.2
20260830192710 107 93 5.0 5.0 0.00 0.00 0.00 19 1013.5
20260830192205 107 100 5.0 9.0 0.00 0.00 0.00 18 1013.6
20260830191701 105 123 3.0 6.0 0.00 0.00 0.00 19 1013.4
20260830191155 105 131 4.0 10.0 0.00 0.00 0.00 19 1013.6
20260830190651 105 245 2.0 5.0 0.00 0.00 0.00 19 1013.7
20260830190146 106 128 4.0 7.0 0.00 0.00 0.00 19 1013.8
20260830185644 107 111 6.0 6.0 0.00 0.00 0.00 18 1013.9
20260830185140 106 359 2.0 3.0 0.00 0.00 0.00 19 1014.1
20260830184639 106 21 2.0 6.0 0.00 0.00 0.00 19 1014.1
20260830184133 106 98 2.0 5.0 0.00 0.00 0.00 19 1014.2
20260830183633 106 132 0.0 2.0 0.00 0.00 0.00 20 1014.2
20260830183130 106 355 2.0 4.0 0.00 0.00 0.00 19 1014.3
20260830182630 105 37 0.0 3.0 0.00 0.00 0.00 19 1014.3
20260830182126 104 301 3.0 6.0 0.00 0.00 0.00 20 1014.5
20260830181622 105 273 2.0 4.0 0.00 0.00 0.00 19 1014.3
20260830181121 104 211 2.0 5.0 0.00 0.00 0.00 20 1014.6
20260830180621 102 153 1.0 4.0 0.00 0.00 0.00 20 1014.4
20260830180120 102 60 3.0 3.0 0.00 0.00 0.00 21 1014.4
20260830175619 104 100 4.0 5.0 0.00 0.00 0.00 20 1014.6
20260830175115 103 117 3.0 5.0 0.00 0.00 0.00 20 1014.7
20260830174610 102 87 3.0 6.0 0.00 0.00 0.00 21 1014.9
20260830174106 103 31 3.0 6.0 0.00 0.00 0.00 20 1014.8
20260830173600 103 63 2.0 3.0 0.00 0.00 0.00 21 1014.6
20260830173055 101 42 2.0 5.0 0.00 0.00 0.00 22 1014.7
20260830172552 102 79 2.0 6.0 0.00 0.00 0.00 21 1014.7
20260830172048 101 93 5.0 5.0 0.00 0.00 0.00 22 1014.7
20260830171543 102 60 3.0 6.0 0.00 0.00 0.00 22 1014.8
20260830171038 101 267 0.0 2.0 0.00 0.00 0.00 22 1014.7
20260830170532 101 122 3.0 4.0 0.00 0.00 0.00 22 1014.9
20260830170031 100 174 0.0 2.0 0.00 0.00 0.00 22 1015.0
20260830165526 99 167 0.0 4.0 0.00 0.00 0.00 23 1014.9
20260830165022 98 69 3.0 7.0 0.00 0.00 0.00 24 1014.8
20260830164518 100 15 0.0 4.0 0.00 0.00 0.00 23 1014.9
20260830164014 100 77 2.0 3.0 0.00 0.00 0.00 23 1014.6
20260830163511 99 97 4.0 6.0 0.00 0.00 0.00 23 1014.9
20260830163010 98 89 1.0 5.0 0.00 0.00 0.00 24 1014.7
20260830162507 98 91 3.0 5.0 0.00 0.00 0.00 24 1014.6
20260830162006 98 84 2.0 4.0 0.00 0.00 0.00 24 1014.7
20260830161500 97 66 2.0 6.0 0.00 0.00 0.00 25 1014.7
20260830160955 97 116 2.0 4.0 0.00 0.00 0.00 25 1014.6
20260830160452 98 111 3.0 4.0 0.00 0.00 0.00 25 1014.5
20260830155946 98 155 2.0 4.0 0.00 0.00 0.00 25 1014.6
20260830155443 98 71 0.0 3.0 0.00 0.00 0.00 24 1014.7
20260830154937 97 141 0.0 2.0 0.00 0.00 0.00 25 1014.7
20260830154433 97 48 0.0 3.0 0.00 0.00 0.00 25 1014.6
20260830153925 97 233 0.0 2.0 0.00 0.00 0.00 25 1014.3
20260830153420 95 199 1.0 2.0 0.00 0.00 0.00 26 1014.4
20260830152919 93 296 0.0 2.0 0.00 0.00 0.00 27 1014.4
20260830152414 94 89 0.0 3.0 0.00 0.00 0.00 28 1014.4
20260830151907 95 213 1.0 1.0 0.00 0.00 0.00 27 1014.4
20260830151402 95 123 1.0 2.0 0.00 0.00 0.00 27 1014.5
20260830150857 96 73 1.0 2.0 0.00 0.00 0.00 26 1014.6
20260830150356 95 352 0.0 1.0 0.00 0.00 0.00 29 1014.5
20260830145851 94 7 0.0 2.0 0.00 0.00 0.00 28 1014.6
20260830145345 92 3 2.0 2.0 0.00 0.00 0.00 30 1014.5
20260830144840 93 325 0.0 2.0 0.00 0.00 0.00 30 1014.6
20260830144337 91 357 0.0 2.0 0.00 0.00 0.00 31 1014.5
20260830143832 91 309 1.0 2.0 0.00 0.00 0.00 30 1014.5
20260830143332 90 75 1.0 2.0 0.00 0.00 0.00 31 1014.4
20260830142826 88 353 1.0 3.0 0.00 0.00 0.00 33 1014.6
20260830142321 86 350 2.0 3.0 0.00 0.00 0.00 34 1014.6
20260830141816 86 318 3.0 3.0 0.00 0.00 0.00 35 1014.5
20260830141311 84 97 1.0 2.0 0.00 0.00 0.00 36 1014.5
20260830140807 83 268 0.0 1.0 0.00 0.00 0.00 37 1014.3
20260830140307 83 14 1.0 2.0 0.00 0.00 0.00 38 1014.4
20260830135801 83 9 1.0 2.0 0.00 0.00 0.00 37 1014.4
20260830135257 84 45 1.0 2.0 0.00 0.00 0.00 37 1014.3
20260830134752 84 71 0.0 3.0 0.00 0.00 0.00 35 1014.3
20260830134247 84 229 1.0 2.0 0.00 0.00 0.00 35 1014.1
20260830133743 84 226 0.0 2.0 0.00 0.00 0.00 35 1014.1
20260830133239 83 208 0.0 2.0 0.00 0.00 0.00 36 1014.0
20260830132734 82 157 1.0 2.0 0.00 0.00 0.00 37 1014.0
20260830132230 82 76 0.0 1.0 0.00 0.00 0.00 37 1013.9
20260830131728 81 197 1.0 3.0 0.00 0.00 0.00 37 1014.0
20260830131223 81 220 2.0 4.0 0.00 0.00 0.00 37 1013.9
20260830130724 80 238 1.0 3.0 0.00 0.00 0.00 38 1013.9
20260830130223 82 141 0.0 2.0 0.00 0.00 0.00 36 1013.9
20260830125718 82 89 0.0 1.0 0.00 0.00 0.00 36 1014.0
20260830125213 83 260 2.0 3.0 0.00 0.00 0.00 35 1013.9
20260830124711 84 293 1.0 1.0 0.00 0.00 0.00 35 1013.8
20260830124206 84 205 0.0 2.0 0.00 0.00 0.00 35 1013.8
20260830123657 85 113 0.0 2.0 0.00 0.00 0.00 35 1013.8
20260830123153 84 86 2.0 4.0 0.00 0.00 0.00 34 1013.8
20260830122650 84 258 2.0 2.0 0.00 0.00 0.00 34 1013.9
20260830122145 84 258 1.0 3.0 0.00 0.00 0.00 34 1014.0
20260830121641 86 278 0.0 2.0 0.00 0.00 0.00 34 1013.8
20260830121140 85 175 0.0 3.0 0.00 0.00 0.00 34 1014.0
20260830120635 85 251 3.0 3.0 0.00 0.00 0.00 34 1013.8
20260830120132 84 220 5.0 5.0 0.00 0.00 0.00 34 1013.9
20260830115628 84 245 3.0 4.0 0.00 0.00 0.00 34 1014.0
20260830115123 85 233 2.0 2.0 0.00 0.00 0.00 34 1013.8
20260830114620 85 154 2.0 3.0 0.00 0.00 0.00 34 1013.8
20260830114119 84 234 1.0 2.0 0.00 0.00 0.00 34 1013.9
20260830113615 84 166 0.0 2.0 0.00 0.00 0.00 35 1013.7
20260830113109 85 281 0.0 2.0 0.00 0.00 0.00 34 1013.8
20260830112606 85 65 0.0 2.0 0.00 0.00 0.00 34 1013.5
20260830112102 85 315 0.0 2.0 0.00 0.00 0.00 34 1013.5
20260830111557 85 258 0.0 1.0 0.00 0.00 0.00 34 1013.6
20260830111052 86 255 3.0 3.0 0.00 0.00 0.00 33 1013.5
20260830110547 86 240 3.0 4.0 0.00 0.00 0.00 33 1013.5
20260830110043 86 189 0.0 2.0 0.00 0.00 0.00 34 1013.4
20260830105537 87 129 1.0 3.0 0.00 0.00 0.00 33 1013.6
20260830105033 87 259 0.0 2.0 0.00 0.00 0.00 33 1013.3
20260830104530 88 150 2.0 2.0 0.00 0.00 0.00 32 1013.3
20260830104026 87 254 1.0 2.0 0.00 0.00 0.00 33 1013.4
20260830103521 87 306 2.0 3.0 0.00 0.00 0.00 33 1013.3